[[{"header":{"parameterUnit":"m.s-1","parameterCategory":2,"la1":30.2992,"la2":30.254,"lo1":-89.0895,"lo2":-89.0443,"dy":0.0025,"dx":0.0025,"nx":19,"ny":19,"refTime":"2026-03-31T09:00:00:Z","depth":"0","parameterNumber":2,"parameterNumberName":"U-component_of_CURRENTS"},"data":[0,0,0,0.1159,0.1161,0.121,0.121,0.1259,0.126,0,0,0,0,0,0,0,0,0,0,0,0.1129,0.1129,0.1159,0.1161,0.1209,0.121,0.1259,0.126,0,0,0,0,0,0,0,0,0,0,0,0.1129,0.1129,0.113,0.1161,0.1209,0.121,0.1259,0.1224,0,0,0,0,0,0,0,0,0,0,0.1177,0.1155,0.1129,0.113,0.1161,0.1209,0.121,0.1222,0.1226,0.1235,0,0.1239,0,0.126,0.1263,0.1263,0,0,0,0.1154,0.1151,0.1167,0.113,0.1162,0.1209,0.1186,0.1224,0.1228,0.124,0.124,0.1242,0.126,0.1264,0.1264,0.1321,0.1321,0,0,0.1151,0.1137,0.1164,0.117,0.117,0.1184,0.1187,0.1227,0.1227,0.124,0.1244,0.1261,0.1264,0.1264,0.1321,0.1321,0,0,0,0.1148,0.1135,0.115,0.1167,0.1182,0.1186,0.1189,0.1225,0.1231,0.1245,0.1262,0.1264,0.1265,0.1321,0.1321,0.1334,0,0,0,0.1146,0.1134,0.1149,0.1141,0.1182,0.1208,0.1187,0.1228,0.1234,0.1261,0.1264,0.1265,0.132,0.1321,0.1333,0.1332,0,0,0,0.1128,0.1133,0.1137,0.114,0.1166,0.1207,0.1215,0.1229,0.1244,0.1263,0.1266,0.132,0.1321,0.1332,0.1331,0.1363,0,0,0,0.1114,0.1113,0.1136,0.114,0.1166,0.1202,0.1215,0.1242,0.1258,0.1265,0.132,0.1321,0.1332,0.133,0.1362,0.1417,0.1426,0,0,0.1104,0.1112,0.1113,0.1136,0.1162,0.1195,0.1234,0.1258,0.127,0.1305,0.1306,0.1333,0.1331,0.1363,0.1447,0.1455,0,0,0,0.1105,0.1108,0.1119,0.1139,0.1173,0.1221,0.1255,0.1275,0.1311,0.1284,0.134,0.1338,0.1359,0.1389,0.1396,0.1489,0.1323,0.1323,0.1323,0.1097,0.1108,0.1114,0.1142,0.1173,0.1241,0.1276,0.1314,0.1323,0.1343,0.1355,0.1394,0.1427,0.1432,0.1527,0.1364,0.1365,0.1365,0.1365,0.108,0.1072,0.1107,0.1114,0.1173,0.1215,0.1301,0.1327,0.1387,0.1377,0.1396,0.1408,0.1441,0.1539,0.1366,0.1365,0.1365,0.1365,0.1365,0.1059,0.105,0.1061,0.1075,0.1128,0.1201,0.127,0.1334,0.1387,0.1416,0.1466,0.1466,0.1549,0.1434,0.1434,0.1434,0.1434,0.1434,0.1434,0.1013,0.1022,0.1014,0.1041,0.1063,0.113,0.1254,0.1321,0.1434,0.1484,0.1485,0.1582,0.1415,0.1408,0.1437,0.1436,0.1436,0.1436,0.1436,0.094,0.0962,0.0943,0.0955,0.1008,0.1066,0.1198,0.1375,0.1463,0.153,0.1689,0.153,0.1534,0.1529,0.1525,0.1583,0.1583,0.1583,0.1583,0.0894,0.0903,0.088,0.0889,0.0936,0.1032,0.1165,0.1353,0.162,0.1754,0.1802,0.1811,0.1801,0.182,0.1808,0.181,0.1938,0.1939,0.1939,0.0837,0.0847,0.0816,0.084,0.0894,0.0993,0.111,0.1327,0.1746,0.1961,0.1923,0.1908,0.1925,0.1902,0.1931,0.1907,0.1908,0,0]},{"header":{"parameterUnit":"m.s-1","parameterCategory":2,"la1":30.2992,"la2":30.254,"lo1":-89.0895,"lo2":-89.0443,"dy":0.0025,"dx":0.0025,"nx":19,"ny":19,"refTime":"2026-03-31T09:00:00:Z","depth":"0","parameterNumber":3,"parameterNumberName":"V-component_of_CURRENTS"},"data":[0,0,0,-0.014,-0.0141,-0.0164,-0.0164,-0.0202,-0.0203,0,0,0,0,0,0,0,0,0,0,0,-0.0128,-0.0128,-0.014,-0.0141,-0.0164,-0.0164,-0.0202,-0.0203,0,0,0,0,0,0,0,0,0,0,0,-0.0128,-0.0128,-0.0128,-0.0141,-0.0164,-0.0164,-0.0202,-0.0182,0,0,0,0,0,0,0,0,0,0,-0.0158,-0.0145,-0.0128,-0.0128,-0.0141,-0.0164,-0.0164,-0.0181,-0.0183,-0.0194,0,-0.0196,0,-0.0203,-0.0205,-0.0205,0,0,0,-0.014,-0.0143,-0.0152,-0.0128,-0.0141,-0.0164,-0.0154,-0.0182,-0.0185,-0.0197,-0.0196,-0.0198,-0.0203,-0.0206,-0.0206,-0.0228,-0.0228,0,0,-0.0139,-0.0132,-0.015,-0.0153,-0.0145,-0.0153,-0.0154,-0.0184,-0.0185,-0.0196,-0.0199,-0.0204,-0.0206,-0.0206,-0.0228,-0.0228,0,0,0,-0.0136,-0.0131,-0.0138,-0.0152,-0.0157,-0.0153,-0.0155,-0.0183,-0.0186,-0.0199,-0.0204,-0.0206,-0.0207,-0.0229,-0.0228,-0.02,0,0,0,-0.0135,-0.0129,-0.0138,-0.0134,-0.0156,-0.0169,-0.0154,-0.0184,-0.0188,-0.0204,-0.0206,-0.0207,-0.0229,-0.0228,-0.0201,-0.0177,0,0,0,-0.0128,-0.0129,-0.0131,-0.0133,-0.0145,-0.0169,-0.0173,-0.0185,-0.0191,-0.0206,-0.0207,-0.0229,-0.0228,-0.0202,-0.0179,-0.0175,0,0,0,-0.012,-0.0114,-0.013,-0.0124,-0.0144,-0.0151,-0.0173,-0.0181,-0.019,-0.0206,-0.0229,-0.0228,-0.0202,-0.018,-0.0176,-0.012,-0.0111,0,0,-0.0107,-0.0112,-0.0108,-0.0123,-0.0116,-0.0148,-0.0148,-0.017,-0.0193,-0.022,-0.022,-0.0201,-0.0179,-0.0176,-0.0111,-0.0102,0,0,0,-0.0099,-0.0096,-0.0098,-0.0098,-0.011,-0.0119,-0.0149,-0.0166,-0.0187,-0.0199,-0.0206,-0.0193,-0.0192,-0.016,-0.0153,-0.018,-0.0228,-0.0228,-0.0228,-0.0045,-0.006,-0.005,-0.0068,-0.0074,-0.0102,-0.0114,-0.0143,-0.0172,-0.0178,-0.0174,-0.0155,-0.0121,-0.0115,-0.0143,-0.0185,-0.0185,-0.0185,-0.0184,-0.0006,0.0004,-0.0015,-0.0017,-0.0032,-0.0039,-0.0077,-0.0102,-0.0132,-0.0154,-0.0155,-0.0136,-0.0105,-0.0139,-0.0183,-0.0183,-0.0183,-0.0183,-0.0184,0.0043,0.0042,0.0032,0.0032,0.0032,0.0003,0.0014,-0.0033,-0.0091,-0.0097,-0.0079,-0.0079,-0.0105,-0.0105,-0.0105,-0.0105,-0.0104,-0.0104,-0.0104,0.0099,0.0087,0.009,0.0078,0.0085,0.009,0.0064,0.0051,0.0009,-0.0035,-0.0035,-0.0095,-0.0131,-0.013,-0.0102,-0.0103,-0.0103,-0.0103,-0.0103,0.015,0.014,0.0147,0.015,0.0159,0.0201,0.0175,0.0166,0.0124,0.0108,0.0002,-0.0009,-0.0013,-0.0019,-0.0016,0.004,0.004,0.004,0.004,0.0195,0.0185,0.0195,0.0208,0.0236,0.0253,0.0322,0.0309,0.0188,0.0122,0.0044,0.0035,0.003,0.0027,0.002,0.0023,0.0087,0.0087,0.0087,0.0233,0.0223,0.0239,0.0232,0.0266,0.0321,0.0403,0.046,0.027,0.0082,-0.0006,-0.0008,-0.0031,-0.0036,-0.0051,-0.0057,-0.0057,0,0]}],[{"header":{"parameterUnit":"m.s-1","parameterCategory":2,"la1":30.2992,"la2":30.254,"lo1":-89.0895,"lo2":-89.0443,"dy":0.0025,"dx":0.0025,"nx":19,"ny":19,"refTime":"2026-03-31T09:00:00:Z","depth":"2","parameterNumber":2,"parameterNumberName":"U-component_of_CURRENTS"},"data":[0,0,0,0.137,0.1371,0.1426,0.1427,0.1456,0.1456,0,0,0,0,0,0,0,0,0,0,0,0.1329,0.1329,0.137,0.1371,0.1426,0.1427,0.1456,0.1456,0,0,0,0,0,0,0,0,0,0,0,0.1329,0.1329,0.1329,0.1372,0.1426,0.1427,0.1456,0.1424,0,0,0,0,0,0,0,0,0,0,0.1375,0.1366,0.1329,0.1329,0.1372,0.1426,0.1427,0.1423,0.1426,0.142,0,0.1415,0,0.1446,0.1458,0.1458,0,0,0,0.1369,0.1363,0.1361,0.1329,0.1372,0.1426,0.1401,0.1425,0.1428,0.1424,0.1416,0.1418,0.1446,0.1458,0.1458,0.1498,0.1499,0,0,0.1366,0.136,0.1358,0.1362,0.1368,0.1399,0.1403,0.1428,0.1433,0.1416,0.1419,0.1447,0.1458,0.1458,0.1498,0.1498,0,0,0,0.1359,0.1358,0.1356,0.136,0.1379,0.1401,0.1405,0.1432,0.1425,0.142,0.1447,0.1458,0.1458,0.1498,0.1498,0.1519,0,0,0,0.1357,0.1354,0.1354,0.1354,0.1378,0.1419,0.1408,0.1423,0.1428,0.1447,0.1458,0.1458,0.1497,0.1498,0.1518,0.1509,0,0,0,0.133,0.1353,0.1348,0.1353,0.1379,0.1419,0.1415,0.1425,0.1444,0.1458,0.1458,0.1497,0.1498,0.1517,0.1507,0.1545,0,0,0,0.1337,0.1327,0.1348,0.1352,0.1378,0.1412,0.1416,0.1436,0.1445,0.1458,0.1497,0.1498,0.1517,0.1507,0.1543,0.169,0.1708,0,0,0.1326,0.1326,0.1327,0.1348,0.1378,0.1405,0.1457,0.146,0.1457,0.1485,0.1486,0.1519,0.1507,0.1544,0.1732,0.1749,0,0,0,0.1326,0.1321,0.1339,0.1358,0.1391,0.1449,0.1471,0.1486,0.1507,0.1469,0.1527,0.1519,0.1542,0.1629,0.1642,0.1502,0.1502,0.1501,0.1501,0.1311,0.1321,0.133,0.1359,0.1396,0.1469,0.1509,0.1532,0.1529,0.1543,0.1544,0.1593,0.1687,0.1698,0.1562,0.1563,0.1563,0.1563,0.1563,0.1291,0.1282,0.1315,0.1323,0.1389,0.1431,0.1532,0.1553,0.1605,0.1583,0.1605,0.1656,0.1714,0.1565,0.1564,0.1564,0.1564,0.1564,0.1564,0.1271,0.1261,0.1264,0.1276,0.1319,0.1408,0.1478,0.1551,0.1601,0.1627,0.1731,0.1732,0.1602,0.1641,0.1641,0.1641,0.1642,0.1642,0.1642,0.1237,0.1236,0.1221,0.1239,0.125,0.1315,0.1447,0.1529,0.1689,0.1757,0.1759,0.1619,0.1617,0.1607,0.1644,0.1643,0.1643,0.1643,0.1643,0.1176,0.1189,0.1164,0.1164,0.1195,0.1261,0.1404,0.1651,0.1749,0.1854,0.1855,0.1849,0.1857,0.1848,0.1844,0.194,0.194,0.194,0.194,0.1138,0.1143,0.1107,0.1099,0.1138,0.1234,0.144,0.1635,0.1815,0.1816,0.1819,0.1813,0.1808,0.1809,0.1801,0.1794,0.1876,0.1875,0.1874,0.109,0.1095,0.1053,0.1055,0.1102,0.1214,0.1446,0.1567,0.157,0.185,0.1594,0.1977,0.1983,0.1968,0.198,0.1963,0.1956,0,0]},{"header":{"parameterUnit":"m.s-1","parameterCategory":2,"la1":30.2992,"la2":30.254,"lo1":-89.0895,"lo2":-89.0443,"dy":0.0025,"dx":0.0025,"nx":19,"ny":19,"refTime":"2026-03-31T09:00:00:Z","depth":"2","parameterNumber":3,"parameterNumberName":"V-component_of_CURRENTS"},"data":[0,0,0,-0.0292,-0.0293,-0.0352,-0.0353,-0.0394,-0.0395,0,0,0,0,0,0,0,0,0,0,0,-0.0256,-0.0256,-0.0292,-0.0293,-0.0352,-0.0353,-0.0394,-0.0395,0,0,0,0,0,0,0,0,0,0,0,-0.0256,-0.0256,-0.0256,-0.0294,-0.0352,-0.0353,-0.0394,-0.0359,0,0,0,0,0,0,0,0,0,0,-0.0306,-0.0286,-0.0256,-0.0256,-0.0294,-0.0352,-0.0353,-0.0357,-0.0361,-0.0358,0,-0.0355,0,-0.0381,-0.0397,-0.0397,0,0,0,-0.0295,-0.0283,-0.0291,-0.0256,-0.0294,-0.0352,-0.0326,-0.036,-0.0363,-0.0362,-0.0356,-0.0358,-0.0382,-0.0397,-0.0397,-0.0416,-0.0416,0,0,-0.0292,-0.0277,-0.0289,-0.0293,-0.0294,-0.0324,-0.0328,-0.0362,-0.0363,-0.0356,-0.036,-0.0382,-0.0397,-0.0397,-0.0416,-0.0416,0,0,0,-0.0281,-0.0275,-0.0284,-0.0291,-0.0307,-0.0326,-0.033,-0.0361,-0.0362,-0.036,-0.0383,-0.0397,-0.0397,-0.0416,-0.0416,-0.0377,0,0,0,-0.0279,-0.0269,-0.0282,-0.0275,-0.0306,-0.0343,-0.0328,-0.0359,-0.0365,-0.0383,-0.0397,-0.0398,-0.0416,-0.0416,-0.0378,-0.0342,0,0,0,-0.0256,-0.0267,-0.0267,-0.0274,-0.03,-0.0343,-0.0347,-0.0361,-0.0378,-0.0397,-0.0398,-0.0416,-0.0416,-0.0379,-0.0345,-0.0336,0,0,0,-0.0249,-0.0237,-0.0266,-0.0264,-0.0299,-0.0322,-0.0347,-0.0358,-0.0369,-0.0397,-0.0416,-0.0416,-0.0379,-0.0346,-0.0337,-0.0324,-0.0317,0,0,-0.0228,-0.0234,-0.0234,-0.0262,-0.0275,-0.0315,-0.0339,-0.0355,-0.0371,-0.0403,-0.0404,-0.0378,-0.0345,-0.0336,-0.0324,-0.0317,0,0,0,-0.0224,-0.0218,-0.0233,-0.0244,-0.0274,-0.0302,-0.0339,-0.0356,-0.0373,-0.038,-0.0389,-0.0369,-0.0365,-0.0361,-0.0355,-0.0416,-0.0416,-0.0416,-0.0416,-0.0147,-0.0175,-0.0174,-0.0213,-0.0232,-0.0286,-0.0308,-0.0336,-0.0363,-0.0361,-0.0346,-0.0322,-0.0318,-0.0313,-0.0368,-0.0367,-0.0367,-0.0367,-0.0367,-0.0101,-0.0095,-0.0126,-0.0141,-0.0176,-0.0193,-0.026,-0.0286,-0.0314,-0.0333,-0.0332,-0.033,-0.0304,-0.0364,-0.0365,-0.0365,-0.0365,-0.0366,-0.0366,-0.0045,-0.0047,-0.0061,-0.0072,-0.0074,-0.0134,-0.013,-0.0191,-0.0251,-0.025,-0.0256,-0.0257,-0.0288,-0.025,-0.025,-0.0249,-0.0249,-0.0249,-0.0249,0.0019,0.0005,0.0008,-0.001,-0.0004,-0.0006,-0.0053,-0.0081,-0.0147,-0.0201,-0.0201,-0.0283,-0.0287,-0.0282,-0.0246,-0.0247,-0.0247,-0.0247,-0.0247,0.0074,0.0066,0.007,0.0073,0.0078,0.0106,0.0062,0.0009,-0.0038,-0.007,-0.0189,-0.0192,-0.0202,-0.0207,-0.0201,-0.0146,-0.0146,-0.0146,-0.0146,0.0123,0.0114,0.0121,0.0132,0.0151,0.0153,0.018,0.0189,0.0095,0.0099,0.009,0.0082,0.007,0.0075,0.0063,0.0074,0.0202,0.0203,0.0204,0.0161,0.0151,0.0167,0.0157,0.0176,0.0209,0.0236,0.0283,0.0317,0.0227,0.0246,-0.0141,-0.0184,-0.019,-0.0211,-0.0219,-0.0213,0,0]}],[{"header":{"parameterUnit":"m.s-1","parameterCategory":2,"la1":30.2992,"la2":30.254,"lo1":-89.0895,"lo2":-89.0443,"dy":0.0025,"dx":0.0025,"nx":19,"ny":19,"refTime":"2026-03-31T09:00:00:Z","depth":"4","parameterNumber":2,"parameterNumberName":"U-component_of_CURRENTS"},"data":[0,0,0,0.0916,0.0918,0.1095,0.1097,0.1248,0.1248,0,0,0,0,0,0,0,0,0,0,0,0.0992,0.0995,0.0916,0.0919,0.1095,0.1097,0.1248,0.1248,0,0,0,0,0,0,0,0,0,0,0,0.099,0.0994,0.0999,0.0919,0.1095,0.1097,0.1248,0.1146,0,0,0,0,0,0,0,0,0,0,0.099,0.1009,0.0993,0.0999,0.0919,0.1095,0.1097,0.1143,0.1153,0.1128,0,0.1236,0,0.1159,0.1251,0.1252,0,0,0,0.0975,0.1002,0.1057,0.0999,0.092,0.1094,0.1032,0.1149,0.116,0.114,0.1236,0.1238,0.1161,0.1252,0.1252,0.1289,0.1289,0,0,0.0965,0.0993,0.1052,0.1067,0.1066,0.1025,0.1036,0.1157,0.1203,0.1236,0.1239,0.1164,0.1252,0.1252,0.1289,0.1289,0,0,0,0.0899,0.0987,0.1043,0.1065,0.1055,0.1029,0.1042,0.1201,0.1226,0.124,0.1165,0.1252,0.1253,0.1289,0.1289,0.1453,0,0,0,0.0896,0.0942,0.1041,0.1053,0.1055,0.112,0.1083,0.1224,0.1228,0.1165,0.1252,0.1253,0.1289,0.1289,0.1448,0.1439,0,0,0,0.0965,0.0943,0.1002,0.1056,0.1091,0.1117,0.1152,0.1225,0.1177,0.1252,0.1253,0.1289,0.1289,0.1444,0.1434,0.1381,0,0,0,0.0933,0.1042,0.1006,0.1081,0.109,0.1128,0.1151,0.1248,0.133,0.1253,0.1289,0.1289,0.1443,0.1431,0.138,0.1121,0,0,0,0.1024,0.1055,0.1082,0.1048,0.1071,0.1102,0.1159,0.1319,0.1302,0.1253,0.1256,0.145,0.1434,0.1381,0.113,0,0,0,0,0.1072,0.1138,0.1139,0.1147,0.1133,0.1153,0.1259,0.1284,0.1377,0.1332,0.1406,0.1387,0.135,0.1193,0.129,0.129,0.129,0.1289,0.1289,0.1115,0.1113,0.1158,0.1184,0.1219,0.1233,0.13,0.134,0.1395,0.1451,0.1493,0.1515,0.1359,0.1499,0.15,0.1501,0.1501,0.1502,0.1502,0.1141,0.1138,0.1183,0.13,0.1285,0.1378,0.1364,0.1449,0.1499,0.1516,0.1477,0.1344,0.1517,0.1514,0.1512,0.151,0.1509,0.1508,0.1507,0.102,0.1061,0.1184,0.1333,0.1432,0.1521,0.1477,0.1564,0.159,0.1624,0.1402,0.155,0.1562,0.1644,0.1644,0.1644,0.1644,0.1644,0.1643,0.0877,0.0982,0.113,0.1371,0.1513,0.159,0.1565,0.1509,0.1559,0.1464,0.1667,0.1558,0.1554,0.1563,0.164,0.1641,0.1641,0.1642,0.1642,0.0856,0.0851,0.1044,0.1214,0.1438,0.1411,0.1471,0.1294,0.1204,0.1142,0.1325,0.1341,0.1215,0.1217,0.121,0.1186,0.1183,0.118,0,0.0757,0.0788,0.0899,0.1014,0.1079,0.1204,0.0992,0.093,0.0991,0.0984,0.1173,0.1381,0.1392,0.125,0.1246,0.1236,0,0,0,0.0746,0.0759,0.0749,0.0808,0.0891,0.0798,0.0867,0.0793,0.1074,0.0897,0.1101,0.1121,0.1353,0.1631,0.1472,0.1467,0.147,0,0]},{"header":{"parameterUnit":"m.s-1","parameterCategory":2,"la1":30.2992,"la2":30.254,"lo1":-89.0895,"lo2":-89.0443,"dy":0.0025,"dx":0.0025,"nx":19,"ny":19,"refTime":"2026-03-31T09:00:00:Z","depth":"4","parameterNumber":3,"parameterNumberName":"V-component_of_CURRENTS"},"data":[0,0,0,0.0147,0.0146,0.0069,0.0069,0.0048,0.0049,0,0,0,0,0,0,0,0,0,0,0,0.0159,0.0158,0.0147,0.0146,0.0069,0.0069,0.0048,0.0049,0,0,0,0,0,0,0,0,0,0,0,0.0159,0.0158,0.0158,0.0146,0.0069,0.0069,0.0048,0.0082,0,0,0,0,0,0,0,0,0,0,0.0145,0.015,0.0158,0.0158,0.0146,0.007,0.0069,0.0083,0.008,0.0112,0,0.0098,0,0.0091,0.0051,0.0051,0,0,0,0.0126,0.0152,0.014,0.0158,0.0145,0.007,0.0098,0.008,0.0078,0.0109,0.0098,0.0097,0.0091,0.0051,0.0051,0.0129,0.013,0,0,0.013,0.0139,0.0141,0.0138,0.0125,0.0101,0.0096,0.0078,0.0073,0.0098,0.0096,0.009,0.0051,0.0052,0.0129,0.013,0,0,0,0.0156,0.0142,0.0127,0.0139,0.0129,0.0099,0.0094,0.0073,0.007,0.0096,0.009,0.0052,0.0052,0.0128,0.0129,0.0158,0,0,0,0.0158,0.0158,0.0129,0.0132,0.0129,0.009,0.0089,0.007,0.0068,0.009,0.0052,0.0052,0.0128,0.0129,0.0155,0.0172,0,0,0,0.0162,0.0159,0.0151,0.0133,0.0111,0.009,0.0084,0.0068,0.0067,0.0051,0.0052,0.0127,0.0129,0.0153,0.0169,0.0217,0,0,0,0.0172,0.0168,0.0151,0.0149,0.0112,0.0122,0.0083,0.006,0.0046,0.0052,0.0128,0.0129,0.0153,0.0167,0.0215,0.0181,0,0,0,0.0178,0.0168,0.017,0.0155,0.0168,0.0131,0.0158,0.0101,0.0086,0.0134,0.0135,0.0156,0.0169,0.0217,0.0267,0,0,0,0,0.0181,0.0178,0.0181,0.0179,0.0184,0.0189,0.0153,0.0151,0.0145,0.0089,0.0178,0.0185,0.0214,0.0189,0.0136,0.0136,0.0136,0.0136,0.0135,0.0197,0.0198,0.021,0.0215,0.0229,0.0228,0.0231,0.0229,0.0205,0.0207,0.0224,0.0301,0.0277,0.0239,0.0239,0.024,0.024,0.024,0.024,0.0223,0.023,0.0239,0.0236,0.0254,0.0266,0.0313,0.0286,0.0326,0.0284,0.0311,0.0239,0.0243,0.0243,0.0242,0.0242,0.0241,0.0241,0.0241,0.0244,0.0246,0.0235,0.0252,0.0256,0.0271,0.0358,0.0369,0.0352,0.0375,0.0359,0.0336,0.0316,0.0388,0.0389,0.0389,0.0389,0.039,0.039,0.0261,0.0266,0.027,0.0264,0.0263,0.0301,0.0379,0.0421,0.0426,0.0403,0.0388,0.0352,0.0347,0.0326,0.0394,0.0394,0.0393,0.0393,0.0392,0.027,0.0279,0.0302,0.0304,0.0332,0.0365,0.0446,0.0488,0.0528,0.0503,0.0425,0.0422,0.0414,0.0408,0.0388,0.0478,0.0477,0.0477,0,0.0274,0.0283,0.0333,0.0384,0.0425,0.0434,0.0501,0.0526,0.0492,0.0469,0.051,0.0422,0.0419,0.0407,0.0402,0.0378,0,0,0,0.0275,0.0294,0.0333,0.04,0.0449,0.0484,0.0514,0.0509,0.0491,0.0501,0.0474,0.0475,0.0446,0.0408,0.0389,0.0383,0.0349,0,0]}]]